QPF
0.00 0.00 0.00 0.00 0.00 0.00 0.00 0.00 0.00 0.00 0.00 0.00 0.00 0.01 0.01 0.01 0.01 0.01 0.01 0.02 0.02 0.02 0.03 0.05 0.06 0.08 0.07 0.07 0.07 0.06 0.05 0.05 0.04 0.06 0.06 0.07 0.08 0.07 0.06 0.05 0.05 0.05 0.05 0.05
0.00 0.00 0.00 0.00 0.00 0.00 0.00 0.00 0.00 0.00 0.00 0.00 0.00 0.01 0.01 0.01 0.01 0.01 0.02 0.02 0.02 0.03 0.03 0.05 0.07 0.11 0.10 0.08 0.06 0.05 0.04 0.03 0.04 0.06 0.11 0.09 0.06 0.04 0.04 0.04 0.04 0.05 0.06 0.06
0.00 0.00 0.00 0.00 0.00 0.00 0.00 0.00 0.00 0.00 0.00 0.00 0.00 0.01 0.01 0.01 0.02 0.02 0.02 0.03 0.05 0.05 0.05 0.06 0.07 0.07 0.05 0.05 0.05 0.05 0.04 0.05 0.04 0.06 0.07 0.07 0.05 0.03 0.03 0.03 0.03 0.04 0.07 0.08
0.00 0.00 0.00 0.00 0.00 0.00 0.00 0.00 0.00 0.00 0.00 0.00 0.00 0.01 0.00 0.00 0.01 0.01 0.02 0.04 0.05 0.06 0.08 0.09 0.08 0.06 0.04 0.06 0.06 0.04 0.03 0.04 0.04 0.05 0.06 0.05 0.05 0.05 0.04 0.04 0.03 0.04 0.06 0.07
0.00 0.00 0.00 0.00 0.00 0.00 0.00 0.00 0.00 0.00 0.00 0.00 0.00 0.00 0.00 0.00 0.00 0.01 0.02 0.05 0.08 0.06 0.06 0.07 0.06 0.05 0.05 0.06 0.07 0.05 0.04 0.03 0.03 0.03 0.05 0.05 0.05 0.04 0.04 0.04 0.04 0.05 0.05 0.05
0.00 0.00 0.00 0.00 0.00 0.00 0.00 0.00 0.00 0.00 0.00 0.00 0.00 0.00 0.00 0.00 0.00 0.00 0.02 0.03 0.05 0.05 0.04 0.04 0.04 0.04 0.04 0.06 0.07 0.05 0.04 0.04 0.04 0.03 0.03 0.05 0.05 0.06 0.06 0.05 0.04 0.04 0.04 0.03
0.01 0.00 0.00 0.00 0.00 0.00 0.00 0.00 0.00 0.01 0.01 0.00 0.00 0.00 0.00 0.00 0.00 0.00 0.01 0.01 0.02 0.04 0.04 0.03 0.04 0.05 0.06 0.05 0.05 0.04 0.04 0.04 0.04 0.04 0.04 0.05 0.06 0.07 0.07 0.06 0.04 0.03 0.02 0.02
0.01 0.01 0.00 0.00 0.00 0.00 0.00 0.00 0.00 0.00 0.00 0.00 0.00 0.00 0.00 0.00 0.00 0.00 0.00 0.00 0.01 0.01 0.02 0.02 0.03 0.04 0.05 0.05 0.04 0.04 0.04 0.04 0.04 0.04 0.04 0.04 0.05 0.06 0.06 0.05 0.03 0.02 0.01 0.01
0.01 0.01 0.00 0.00 0.00 0.00 0.00 0.00 0.00 0.00 0.00 0.00 0.00 0.00 0.00 0.01 0.01 0.01 0.01 0.01 0.01 0.01 0.01 0.03 0.04 0.04 0.04 0.05 0.05 0.04 0.03 0.04 0.04 0.03 0.03 0.03 0.03 0.04 0.04 0.03 0.02 0.02 0.02 0.01
0.01 0.01 0.00 0.00 0.00 0.00 0.00 0.00 0.00 0.00 0.01 0.01 0.00 0.01 0.01 0.01 0.01 0.01 0.01 0.01 0.01 0.01 0.02 0.04 0.07 0.07 0.06 0.05 0.04 0.03 0.03 0.04 0.03 0.03 0.03 0.03 0.02 0.03 0.04 0.04 0.03 0.01 0.01 0.01
0.01 0.01 0.00 0.00 0.00 0.00 0.00 0.00 0.00 0.00 0.00 0.01 0.01 0.01 0.01 0.01 0.01 0.01 0.01 0.01 0.01 0.01 0.03 0.06 0.05 0.03 0.04 0.03 0.02 0.03 0.04 0.04 0.04 0.04 0.03 0.02 0.01 0.02 0.03 0.03 0.03 0.01 0.01 0.01
0.00 0.00 0.00 0.00 0.00 0.00 0.00 0.00 0.00 0.01 0.01 0.01 0.01 0.01 0.01 0.01 0.00 0.01 0.02 0.01 0.01 0.01 0.02 0.05 0.03 0.03 0.02 0.02 0.02 0.03 0.04 0.04 0.04 0.04 0.02 0.01 0.02 0.02 0.03 0.03 0.03 0.02 0.02 0.01
0.00 0.00 0.00 0.00 0.01 0.00 0.00 0.00 0.00 0.00 0.00 0.01 0.01 0.01 0.01 0.01 0.00 0.01 0.01 0.01 0.01 0.01 0.02 0.03 0.03 0.03 0.03 0.03 0.03 0.03 0.03 0.04 0.04 0.03 0.02 0.02 0.03 0.04 0.05 0.05 0.04 0.03 0.02 0.01
0.00 0.00 0.01 0.01 0.01 0.00 0.00 0.00 0.00 0.01 0.01 0.01 0.01 0.01 0.01 0.01 0.01 0.01 0.01 0.01 0.02 0.02 0.02 0.02 0.03 0.04 0.04 0.04 0.04 0.03 0.04 0.04 0.04 0.02 0.01 0.01 0.01 0.02 0.04 0.05 0.04 0.02 0.01 0.01
0.00 0.00 0.00 0.00 0.00 0.00 0.00 0.00 0.00 0.01 0.01 0.01 0.01 0.01 0.01 0.01 0.01 0.01 0.01 0.01 0.02 0.02 0.02 0.02 0.03 0.05 0.05 0.06 0.05 0.04 0.04 0.04 0.04 0.03 0.01 0.00 0.01 0.01 0.01 0.02 0.02 0.01 0.01 0.01
0.00 0.01 0.00 0.00 0.00 0.00 0.00 0.01 0.01 0.01 0.01 0.01 0.01 0.02 0.01 0.01 0.01 0.01 0.01 0.02 0.02 0.02 0.02 0.03 0.04 0.04 0.04 0.06 0.05 0.05 0.04 0.04 0.04 0.03 0.01 0.01 0.01 0.01 0.01 0.01 0.02 0.02 0.01 0.01
0.00 0.01 0.01 0.01 0.00 0.00 0.01 0.01 0.01 0.01 0.01 0.01 0.02 0.03 0.01 0.01 0.01 0.01 0.02 0.02 0.03 0.03 0.02 0.03 0.04 0.04 0.05 0.06 0.05 0.04 0.04 0.04 0.04 0.03 0.01 0.01 0.01 0.01 0.01 0.01 0.02 0.02 0.02 0.02
0.00 0.00 0.01 0.01 0.01 0.01 0.01 0.01 0.01 0.01 0.01 0.01 0.02 0.02 0.02 0.01 0.01 0.02 0.02 0.03 0.03 0.03 0.03 0.03 0.04 0.05 0.04 0.05 0.06 0.04 0.03 0.03 0.03 0.02 0.01 0.01 0.01 0.02 0.02 0.02 0.03 0.02 0.02 0.02
0.00 0.01 0.01 0.02 0.02 0.01 0.01 0.01 0.01 0.02 0.02 0.01 0.02 0.02 0.02 0.02 0.02 0.02 0.02 0.02 0.04 0.07 0.08 0.06 0.06 0.06 0.05 0.04 0.03 0.03 0.03 0.03 0.02 0.01 0.01 0.01 0.01 0.03 0.03 0.03 0.03 0.02 0.02 0.01
0.00 0.00 0.01 0.02 0.02 0.02 0.01 0.00 0.01 0.03 0.04 0.02 0.02 0.02 0.02 0.02 0.03 0.02 0.01 0.01 0.03 0.07 0.10 0.10 0.07 0.06 0.06 0.04 0.03 0.03 0.02 0.03 0.03 0.02 0.01 0.01 0.01 0.02 0.04 0.05 0.04 0.03 0.02 0.01
0.01 0.01 0.01 0.01 0.02 0.01 0.01 0.01 0.02 0.05 0.04 0.02 0.03 0.02 0.02 0.03 0.03 0.02 0.01 0.01 0.02 0.04 0.07 0.10 0.10 0.07 0.05 0.04 0.04 0.03 0.03 0.02 0.02 0.01 0.01 0.02 0.02 0.02 0.03 0.04 0.04 0.02 0.01 0.01
0.01 0.01 0.01 0.01 0.02 0.01 0.01 0.01 0.02 0.03 0.02 0.03 0.03 0.02 0.03 0.03 0.02 0.02 0.02 0.02 0.02 0.02 0.03 0.07 0.09 0.08 0.05 0.04 0.04 0.03 0.03 0.02 0.01 0.01 0.01 0.02 0.02 0.03 0.02 0.02 0.02 0.02 0.01 0.02
0.02 0.01 0.01 0.01 0.02 0.02 0.01 0.01 0.01 0.02 0.02 0.03 0.03 0.02 0.02 0.03 0.03 0.02 0.02 0.02 0.02 0.02 0.03 0.04 0.05 0.05 0.04 0.04 0.04 0.03 0.03 0.01 0.00 0.01 0.02 0.02 0.03 0.03 0.03 0.03 0.02 0.01 0.01 0.02
0.01 0.01 0.01 0.01 0.01 0.01 0.01 0.01 0.01 0.01 0.01 0.02 0.02 0.02 0.02 0.02 0.04 0.05 0.03 0.02 0.02 0.03 0.04 0.03 0.03 0.03 0.03 0.03 0.02 0.03 0.03 0.01 0.01 0.01 0.02 0.02 0.02 0.02 0.02 0.02 0.02 0.01 0.01 0.02
0.01 0.01 0.01 0.01 0.01 0.01 0.01 0.01 0.00 0.01 0.01 0.03 0.03 0.03 0.03 0.02 0.03 0.03 0.03 0.03 0.03 0.04 0.04 0.03 0.02 0.02 0.03 0.02 0.02 0.02 0.02 0.01 0.01 0.02 0.02 0.01 0.01 0.02 0.02 0.01 0.01 0.00 0.01 0.02
0.01 0.01 0.02 0.02 0.01 0.02 0.01 0.01 0.01 0.01 0.03 0.04 0.02 0.02 0.01 0.01 0.01 0.02 0.02 0.02 0.02 0.02 0.02 0.01 0.01 0.01 0.02 0.01 0.01 0.01 0.01 0.02 0.01 0.01 0.01 0.01 0.01 0.01 0.01 0.01 0.01 0.01 0.01 0.01
MSLP
1011.98 1012.40 1012.75 1013.03 1013.24 1013.39 1013.50 1013.56 1013.55 1013.47 1013.29 1012.99 1012.59 1012.10 1011.54 1010.96 1010.40 1009.88 1009.43 1009.07 1008.78 1008.57 1008.43 1008.34 1008.32 1008.37 1008.50 1008.72 1009.04 1009.45 1009.94 1010.47 1011.01 1011.53 1011.99 1012.38 1012.67 1012.87 1012.97 1013.00 1012.95 1012.85 1012.69 1012.50
1012.44 1012.81 1013.10 1013.32 1013.48 1013.60 1013.69 1013.76 1013.77 1013.72 1013.57 1013.31 1012.93 1012.44 1011.87 1011.25 1010.62 1010.04 1009.52 1009.08 1008.73 1008.47 1008.29 1008.19 1008.16 1008.20 1008.33 1008.54 1008.84 1009.22 1009.66 1010.14 1010.62 1011.07 1011.48 1011.80 1012.04 1012.20 1012.28 1012.29 1012.24 1012.15 1012.03 1011.88
1012.89 1013.19 1013.42 1013.58 1013.70 1013.79 1013.89 1013.97 1014.02 1014.02 1013.91 1013.69 1013.33 1012.84 1012.24 1011.56 1010.87 1010.20 1009.60 1009.08 1008.68 1008.37 1008.17 1008.06 1008.04 1008.10 1008.23 1008.44 1008.73 1009.08 1009.48 1009.90 1010.32 1010.70 1011.04 1011.30 1011.50 1011.62 1011.67 1011.68 1011.65 1011.59 1011.51 1011.41
1013.31 1013.55 1013.71 1013.82 1013.91 1014.00 1014.10 1014.22 1014.32 1014.37 1014.32 1014.13 1013.79 1013.29 1012.66 1011.92 1011.15 1010.39 1009.70 1009.10 1008.63 1008.29 1008.07 1007.97 1007.97 1008.05 1008.22 1008.44 1008.73 1009.07 1009.43 1009.81 1010.17 1010.50 1010.78 1011.00 1011.16 1011.26 1011.31 1011.33 1011.33 1011.31 1011.28 1011.24
1013.71 1013.88 1013.99 1014.05 1014.12 1014.21 1014.34 1014.50 1014.66 1014.77 1014.77 1014.63 1014.30 1013.80 1013.13 1012.33 1011.48 1010.63 1009.85 1009.18 1008.65 1008.27 1008.04 1007.95 1007.97 1008.10 1008.29 1008.55 1008.85 1009.19 1009.53 1009.88 1010.20 1010.50 1010.74 1010.94 1011.09 1011.19 1011.26 1011.30 1011.33 1011.35 1011.36 1011.37
1014.10 1014.20 1014.25 1014.28 1014.33 1014.43 1014.58 1014.79 1015.00 1015.17 1015.24 1015.14 1014.84 1014.34 1013.65 1012.81 1011.89 1010.97 1010.11 1009.37 1008.78 1008.37 1008.13 1008.05 1008.10 1008.26 1008.49 1008.77 1009.09 1009.43 1009.78 1010.11 1010.42 1010.69 1010.93 1011.12 1011.28 1011.39 1011.48 1011.56 1011.61 1011.67 1011.71 1011.73
1014.48 1014.52 1014.51 1014.51 1014.53 1014.63 1014.81 1015.05 1015.32 1015.55 1015.67 1015.63 1015.38 1014.90 1014.21 1013.36 1012.41 1011.44 1010.52 1009.73 1009.11 1008.66 1008.41 1008.33 1008.40 1008.57 1008.82 1009.12 1009.45 1009.79 1010.13 1010.46 1010.76 1011.03 1011.27 1011.48 1011.65 1011.79 1011.90 1011.99 1012.06 1012.13 1012.17 1012.20
1014.89 1014.86 1014.80 1014.74 1014.73 1014.81 1014.99 1015.26 1015.57 1015.86 1016.05 1016.08 1015.89 1015.47 1014.82 1013.99 1013.04 1012.06 1011.13 1010.31 1009.66 1009.19 1008.92 1008.83 1008.88 1009.05 1009.30 1009.59 1009.91 1010.24 1010.56 1010.88 1011.17 1011.44 1011.68 1011.90 1012.08 1012.23 1012.35 1012.44 1012.51 1012.57 1012.60 1012.61
1015.34 1015.24 1015.11 1014.98 1014.92 1014.96 1015.13 1015.40 1015.74 1016.08 1016.34 1016.45 1016.36 1016.02 1015.45 1014.68 1013.79 1012.84 1011.92 1011.10 1010.43 1009.95 1009.65 1009.53 1009.55 1009.69 1009.90 1010.16 1010.44 1010.73 1011.02 1011.30 1011.57 1011.83 1012.06 1012.27 1012.44 1012.59 1012.70 1012.78 1012.83 1012.85 1012.85 1012.84
1015.84 1015.66 1015.45 1015.25 1015.12 1015.10 1015.23 1015.50 1015.85 1016.24 1016.57 1016.77 1016.78 1016.55 1016.10 1015.43 1014.62 1013.73 1012.86 1012.06 1011.39 1010.88 1010.55 1010.38 1010.35 1010.43 1010.58 1010.77 1010.99 1011.22 1011.45 1011.68 1011.91 1012.13 1012.33 1012.51 1012.67 1012.79 1012.87 1012.91 1012.92 1012.90 1012.87 1012.81
1016.35 1016.11 1015.82 1015.54 1015.33 1015.25 1015.33 1015.57 1015.93 1016.35 1016.75 1017.04 1017.15 1017.05 1016.73 1016.18 1015.47 1014.68 1013.86 1013.09 1012.43 1011.90 1011.52 1011.30 1011.20 1011.19 1011.25 1011.36 1011.50 1011.64 1011.80 1011.97 1012.14 1012.30 1012.46 1012.61 1012.72 1012.80 1012.84 1012.84 1012.80 1012.74 1012.66 1012.58
1016.86 1016.56 1016.20 1015.84 1015.56 1015.42 1015.45 1015.66 1016.02 1016.46 1016.91 1017.28 1017.50 1017.52 1017.31 1016.88 1016.28 1015.57 1014.82 1014.08 1013.42 1012.87 1012.45 1012.15 1011.97 1011.88 1011.85 1011.86 1011.91 1011.97 1012.05 1012.15 1012.25 1012.37 1012.48 1012.57 1012.65 1012.68 1012.68 1012.63 1012.56 1012.45 1012.34 1012.24
1017.32 1016.98 1016.57 1016.16 1015.83 1015.64 1015.63 1015.81 1016.16 1016.61 1017.09 1017.52 1017.82 1017.92 1017.81 1017.49 1016.98 1016.33 1015.63 1014.91 1014.25 1013.67 1013.20 1012.84 1012.58 1012.40 1012.29 1012.22 1012.18 1012.17 1012.19 1012.22 1012.28 1012.35 1012.42 1012.48 1012.52 1012.52 1012.48 1012.40 1012.30 1012.17 1012.04 1011.92
1017.69 1017.34 1016.91 1016.49 1016.13 1015.92 1015.88 1016.04 1016.37 1016.82 1017.32 1017.77 1018.10 1018.26 1018.22 1017.95 1017.50 1016.90 1016.22 1015.51 1014.84 1014.23 1013.71 1013.29 1012.97 1012.72 1012.54 1012.40 1012.31 1012.25 1012.22 1012.22 1012.25 1012.29 1012.34 1012.39 1012.41 1012.39 1012.34 1012.25 1012.12 1011.98 1011.84 1011.72
1017.95 1017.62 1017.21 1016.80 1016.46 1016.24 1016.21 1016.35 1016.67 1017.10 1017.58 1018.03 1018.36 1018.53 1018.50 1018.26 1017.82 1017.24 1016.57 1015.86 1015.16 1014.52 1013.97 1013.50 1013.13 1012.83 1012.61 1012.44 1012.31 1012.23 1012.18 1012.18 1012.20 1012.24 1012.30 1012.34 1012.37 1012.36 1012.31 1012.21 1012.09 1011.95 1011.80 1011.68
1018.10 1017.81 1017.45 1017.09 1016.79 1016.61 1016.59 1016.74 1017.04 1017.44 1017.88 1018.29 1018.59 1018.73 1018.67 1018.41 1017.97 1017.38 1016.69 1015.97 1015.25 1014.59 1014.01 1013.51 1013.11 1012.79 1012.54 1012.36 1012.23 1012.15 1012.11 1012.12 1012.16 1012.23 1012.30 1012.37 1012.42 1012.42 1012.38 1012.30 1012.18 1012.04 1011.89 1011.76
1018.16 1017.92 1017.64 1017.35 1017.13 1017.00 1017.01 1017.17 1017.45 1017.81 1018.20 1018.54 1018.77 1018.85 1018.75 1018.44 1017.97 1017.35 1016.65 1015.91 1015.19 1014.51 1013.91 1013.40 1012.99 1012.66 1012.41 1012.23 1012.12 1012.06 1012.05 1012.08 1012.16 1012.25 1012.36 1012.46 1012.53 1012.56 1012.53 1012.46 1012.34 1012.19 1012.04 1011.89
1018.14 1017.98 1017.77 1017.58 1017.44 1017.39 1017.44 1017.61 1017.87 1018.19 1018.50 1018.77 1018.92 1018.92 1018.75 1018.39 1017.88 1017.24 1016.52 1015.78 1015.05 1014.37 1013.77 1013.26 1012.85 1012.53 1012.29 1012.13 1012.03 1012.00 1012.02 1012.08 1012.19 1012.31 1012.45 1012.57 1012.65 1012.69 1012.68 1012.60 1012.47 1012.31 1012.13 1011.96
1018.10 1017.99 1017.88 1017.78 1017.73 1017.74 1017.84 1018.02 1018.27 1018.53 1018.78 1018.96 1019.03 1018.95 1018.71 1018.30 1017.75 1017.09 1016.37 1015.63 1014.91 1014.24 1013.66 1013.17 1012.77 1012.46 1012.24 1012.09 1012.01 1011.99 1012.03 1012.12 1012.25 1012.39 1012.53 1012.66 1012.75 1012.78 1012.75 1012.66 1012.51 1012.32 1012.11 1011.90
1018.06 1018.01 1017.97 1017.95 1017.98 1018.06 1018.20 1018.39 1018.62 1018.84 1019.01 1019.11 1019.10 1018.94 1018.64 1018.19 1017.61 1016.95 1016.23 1015.50 1014.81 1014.16 1013.60 1013.13 1012.75 1012.45 1012.24 1012.11 1012.05 1012.04 1012.10 1012.19 1012.32 1012.46 1012.60 1012.71 1012.78 1012.79 1012.73 1012.61 1012.42 1012.19 1011.94 1011.70
1018.05 1018.04 1018.06 1018.11 1018.20 1018.34 1018.51 1018.71 1018.91 1019.08 1019.20 1019.22 1019.13 1018.90 1018.55 1018.06 1017.47 1016.80 1016.10 1015.39 1014.72 1014.11 1013.57 1013.12 1012.76 1012.48 1012.29 1012.17 1012.12 1012.12 1012.18 1012.27 1012.39 1012.52 1012.64 1012.72 1012.75 1012.72 1012.62 1012.45 1012.22 1011.95 1011.67 1011.39
1018.08 1018.10 1018.16 1018.27 1018.41 1018.59 1018.78 1018.98 1019.15 1019.27 1019.32 1019.28 1019.11 1018.83 1018.42 1017.90 1017.29 1016.62 1015.93 1015.25 1014.61 1014.02 1013.51 1013.08 1012.75 1012.49 1012.32 1012.21 1012.17 1012.19 1012.25 1012.34 1012.45 1012.56 1012.64 1012.69 1012.68 1012.60 1012.45 1012.23 1011.96 1011.66 1011.35 1011.04
1018.17 1018.20 1018.29 1018.44 1018.62 1018.82 1019.02 1019.20 1019.34 1019.41 1019.40 1019.28 1019.04 1018.69 1018.23 1017.68 1017.05 1016.38 1015.69 1015.02 1014.40 1013.83 1013.35 1012.95 1012.64 1012.41 1012.26 1012.18 1012.16 1012.20 1012.27 1012.37 1012.47 1012.56 1012.62 1012.63 1012.58 1012.45 1012.26 1012.00 1011.70 1011.37 1011.04 1010.74
1018.29 1018.34 1018.45 1018.62 1018.82 1019.02 1019.22 1019.38 1019.47 1019.49 1019.41 1019.21 1018.91 1018.49 1017.97 1017.37 1016.71 1016.02 1015.32 1014.66 1014.04 1013.49 1013.03 1012.65 1012.37 1012.18 1012.07 1012.03 1012.05 1012.12 1012.22 1012.33 1012.44 1012.53 1012.57 1012.55 1012.47 1012.31 1012.08 1011.80 1011.47 1011.13 1010.81 1010.50
1018.44 1018.50 1018.62 1018.80 1019.01 1019.21 1019.39 1019.51 1019.55 1019.50 1019.34 1019.07 1018.68 1018.19 1017.60 1016.95 1016.24 1015.52 1014.81 1014.13 1013.52 1012.98 1012.53 1012.19 1011.94 1011.79 1011.73 1011.74 1011.82 1011.93 1012.08 1012.23 1012.35 1012.45 1012.48 1012.45 1012.35 1012.17 1011.92 1011.62 1011.29 1010.95 1010.63 1010.35
1018.58 1018.65 1018.79 1018.97 1019.17 1019.35 1019.49 1019.57 1019.55 1019.42 1019.18 1018.82 1018.35 1017.78 1017.12 1016.40 1015.65 1014.89 1014.15 1013.46 1012.84 1012.31 1011.88 1011.57 1011.36 1011.26 1011.26 1011.33 1011.47 1011.64 1011.84 1012.03 1012.19 1012.30 1012.34 1012.31 1012.19 1012.00 1011.74 1011.44 1011.11 1010.79 1010.49 1010.22
Thickness
5765 5762 5756 5758 5763 5764 5761 5758 5756 5760 5769 5765 5759 5758 5762 5767 5765 5762 5760 5756 5753 5750 5749 5746 5742 5740 5736 5733 5731 5729 5725 5722 5719 5715 5711 5708 5705 5702 5701 5698 5694 5690 5688 5685
5758 5753 5760 5764 5764 5762 5760 5754 5755 5758 5764 5759 5754 5754 5760 5761 5759 5759 5756 5752 5749 5746 5741 5738 5735 5733 5729 5726 5725 5723 5720 5718 5715 5711 5707 5704 5701 5699 5697 5692 5688 5685 5682 5680
5752 5756 5762 5759 5757 5754 5755 5753 5752 5751 5757 5759 5751 5748 5752 5756 5757 5755 5753 5749 5746 5741 5736 5731 5728 5726 5724 5720 5718 5717 5714 5712 5709 5706 5703 5700 5696 5694 5691 5687 5684 5681 5677 5675
5755 5759 5757 5756 5754 5754 5750 5759 5755 5751 5748 5749 5748 5736 5748 5751 5750 5749 5747 5744 5740 5737 5733 5728 5725 5721 5719 5716 5714 5711 5708 5705 5702 5700 5699 5696 5691 5688 5685 5683 5680 5676 5673 5670
5750 5755 5753 5750 5752 5755 5754 5759 5756 5753 5749 5745 5748 5739 5746 5750 5744 5744 5743 5740 5736 5733 5729 5724 5721 5718 5714 5712 5709 5704 5701 5699 5696 5694 5693 5690 5688 5684 5682 5678 5674 5671 5669 5665
5754 5760 5757 5753 5757 5758 5757 5754 5752 5752 5751 5734 5741 5735 5736 5747 5744 5742 5741 5736 5732 5728 5725 5721 5718 5714 5710 5707 5703 5699 5695 5692 5691 5689 5687 5684 5681 5678 5675 5671 5669 5667 5665 5661
5744 5751 5756 5757 5749 5753 5751 5741 5733 5731 5733 5734 5743 5733 5736 5746 5745 5740 5735 5731 5728 5724 5720 5717 5713 5709 5705 5701 5697 5694 5690 5686 5685 5683 5681 5678 5675 5673 5669 5666 5663 5661 5659 5656
5731 5734 5746 5749 5745 5739 5742 5739 5723 5712 5720 5732 5735 5729 5739 5745 5742 5738 5733 5728 5723 5718 5715 5712 5709 5705 5700 5696 5692 5688 5684 5681 5679 5677 5674 5672 5669 5668 5665 5660 5658 5655 5653 5650
5725 5727 5744 5745 5747 5744 5737 5738 5741 5728 5728 5722 5731 5734 5737 5738 5732 5728 5725 5721 5717 5713 5711 5707 5704 5699 5694 5690 5686 5683 5679 5676 5674 5672 5669 5665 5663 5660 5657 5654 5652 5650 5646 5644
5725 5717 5735 5741 5744 5743 5741 5737 5730 5723 5707 5705 5718 5724 5725 5723 5721 5720 5717 5714 5712 5709 5705 5701 5697 5694 5690 5686 5682 5677 5675 5672 5669 5667 5664 5661 5657 5654 5651 5649 5646 5643 5640 5637
5725 5714 5724 5731 5727 5727 5729 5726 5723 5724 5719 5702 5700 5714 5725 5718 5717 5714 5713 5711 5707 5703 5698 5694 5691 5688 5685 5681 5677 5673 5670 5667 5664 5662 5658 5655 5652 5649 5646 5643 5640 5638 5635 5632
5718 5714 5713 5723 5732 5733 5727 5721 5717 5703 5702 5706 5701 5707 5723 5719 5715 5711 5707 5705 5701 5696 5692 5689 5685 5682 5679 5676 5672 5669 5666 5663 5660 5657 5654 5650 5647 5644 5642 5639 5636 5633 5630 5627
5710 5704 5700 5711 5716 5721 5717 5717 5715 5708 5701 5698 5693 5702 5718 5714 5709 5706 5701 5697 5693 5688 5685 5682 5678 5676 5673 5670 5667 5664 5662 5658 5656 5653 5650 5646 5643 5640 5637 5634 5632 5629 5626 5624
5705 5701 5696 5692 5700 5707 5705 5709 5710 5703 5696 5695 5697 5700 5706 5701 5697 5696 5693 5689 5685 5681 5679 5676 5673 5670 5669 5665 5662 5660 5657 5654 5651 5648 5646 5642 5639 5636 5634 5631 5629 5626 5623 5621
5700 5697 5700 5702 5705 5704 5702 5702 5702 5698 5697 5692 5693 5693 5691 5691 5688 5687 5685 5681 5678 5675 5673 5670 5667 5665 5662 5660 5656 5654 5652 5650 5648 5644 5642 5639 5637 5634 5631 5628 5626 5623 5620 5618
5694 5689 5692 5693 5702 5700 5695 5697 5696 5694 5693 5691 5689 5686 5688 5687 5684 5680 5677 5675 5672 5670 5668 5665 5662 5659 5657 5655 5653 5650 5648 5646 5643 5641 5639 5637 5634 5631 5628 5626 5622 5619 5617 5614
5689 5682 5680 5685 5695 5691 5686 5692 5690 5688 5690 5685 5678 5676 5678 5676 5674 5673 5671 5669 5667 5666 5664 5660 5657 5655 5653 5650 5649 5647 5645 5643 5641 5638 5636 5634 5631 5629 5626 5624 5621 5617 5614 5611
5678 5676 5677 5680 5680 5669 5685 5695 5689 5682 5681 5681 5675 5672 5671 5670 5671 5670 5669 5666 5664 5664 5660 5657 5654 5651 5649 5647 5646 5644 5642 5640 5638 5636 5634 5632 5629 5627 5624 5621 5618 5615 5612 5609
5678 5672 5673 5673 5669 5672 5683 5684 5680 5672 5671 5674 5668 5666 5667 5668 5667 5667 5665 5663 5660 5659 5657 5654 5651 5649 5646 5644 5642 5641 5639 5638 5636 5635 5633 5631 5628 5625 5621 5618 5615 5613 5610 5607
5676 5672 5668 5666 5656 5656 5671 5675 5677 5669 5661 5666 5662 5659 5659 5659 5657 5661 5660 5657 5655 5654 5652 5649 5647 5645 5642 5640 5639 5637 5636 5635 5635 5634 5632 5630 5626 5623 5620 5617 5614 5612 5609 5607
5666 5664 5661 5659 5653 5661 5671 5671 5668 5651 5650 5657 5656 5654 5652 5652 5652 5653 5653 5651 5649 5648 5646 5645 5642 5640 5639 5637 5636 5635 5634 5634 5634 5633 5630 5627 5624 5622 5619 5616 5614 5611 5609 5607
5658 5658 5656 5655 5647 5651 5662 5660 5650 5647 5653 5652 5651 5650 5649 5649 5649 5648 5647 5645 5644 5643 5641 5640 5637 5636 5636 5635 5634 5633 5632 5633 5632 5631 5628 5625 5622 5621 5619 5615 5613 5610 5608 5606
5653 5654 5653 5651 5651 5654 5654 5650 5649 5648 5645 5646 5647 5647 5645 5643 5643 5642 5641 5640 5640 5639 5638 5637 5635 5634 5633 5633 5633 5631 5631 5631 5630 5629 5626 5624 5621 5618 5616 5614 5612 5610 5608 5607
5651 5649 5644 5642 5650 5650 5649 5648 5646 5644 5643 5644 5644 5643 5641 5639 5639 5638 5637 5636 5635 5636 5636 5635 5634 5632 5632 5631 5631 5631 5631 5630 5629 5627 5625 5623 5620 5617 5615 5613 5613 5611 5609 5607
5639 5638 5635 5635 5641 5642 5643 5641 5640 5640 5641 5641 5641 5640 5639 5638 5637 5636 5634 5633 5633 5634 5634 5633 5633 5632 5631 5631 5631 5631 5631 5629 5628 5627 5625 5623 5621 5618 5614 5614 5612 5610 5607 5603
5636 5631 5627 5630 5634 5631 5633 5636 5638 5637 5637 5637 5637 5638 5638 5637 5636 5634 5632 5631 5631 5631 5632 5632 5632 5632 5632 5632 5632 5632 5631 5629 5627 5626 5624 5624 5622 5619 5618 5616 5614 5608 5604 5600